Flag for Canada Weather past 2 weeks in Oshawa, Ontario, Canada

Now
63 °F

Passing clouds.


Feels Like: 63 °F
Forecast: 63 / 77 °F
Wind: No wind

Location: Toronto Buttonville

Current Time: Sep 1, 2014 at 4:30:11 AM

Latest Report: Sep 1, 2014 at 4:00 AM


Visibility: 15 mi

Pressure: 29.97 "Hg

Humidity: 94%

Dew point: 61 °F

Location of OshawaLocation

Historic Weather in Oshawa — Graph

°F

Oshawa temperature yesterday

Maximum temperature yesterday: 84 °F (at 3:00 PM)
Minimum temperature yesterday: 68 °F (at 11:00 PM)
Average temperature yesterday: 77 °F

Past Weeks' High & Low Weather Summary

 TemperatureHumidityPressure
High88 °F (Aug 26, 6:00 PM)100% (Aug 17, 6:00 AM)30.21 "Hg (Aug 17, 6:00 AM)
Low50 °F (Aug 19, 4:00 AM)38% (Aug 28, 4:00 PM)29.84 "Hg (Aug 20, 2:00 AM)
Average68 °F76%30.02 "Hg
* Reported Aug 17 3:00 AM — Sep 1 3:00 AM, Oshawa, Weather by CustomWeather, © 2014

Note: Actual official high and low records may vary slightly from our data, if they occured in-between our weather recording intervals... More about our weather records

Advertising

Oshawa weather history for previous 24 hours

 ConditionsComfort  
Time TempWeatherWind HumidityBarometerVisibility
3:00 AM
Sep 1
63 °FPassing clouds.No wind94%29.96 "Hg15 mi
2:00 AM64 °FPassing clouds.No wind94%29.96 "Hg15 mi
1:00 AM64 °FPassing clouds.3 mph94%29.96 "Hg15 mi
12:00 AM66 °FPassing clouds.2 mph88%29.95 "Hg15 mi
11:00 PM
Aug 31
68 °FPassing clouds.6 mph88%29.95 "Hg15 mi
10:00 PM72 °FClear.5 mph78%29.95 "Hg15 mi
9:00 PM73 °FPassing clouds.3 mph69%29.94 "Hg15 mi
8:00 PM77 °FPassing clouds.5 mph61%29.93 "Hg15 mi
7:00 PM81 °FPassing clouds.10 mph54%29.91 "Hg15 mi
6:00 PM82 °FScattered clouds.7 mph51%29.90 "Hg15 mi
5:00 PM84 °FBroken clouds.13 mph48%29.88 "Hg15 mi
4:00 PM84 °FBroken clouds.12 mph48%29.88 "Hg15 mi
3:00 PM84 °FBroken clouds.7 mph51%29.90 "Hg15 mi
2:00 PM81 °FBroken clouds.10 mph54%29.90 "Hg15 mi
1:00 PM82 °FPartly sunny.12 mph55%29.90 "Hg15 mi
12:00 PM82 °FPartly sunny.12 mph55%29.90 "Hg15 mi
11:00 AM79 °FPartly sunny.10 mph65%29.90 "Hg15 mi
10:00 AM77 °FPartly sunny.9 mph74%29.91 "Hg15 mi
9:00 AM75 °FMore clouds than sun.7 mph78%29.91 "Hg12 mi
8:00 AM73 °FOvercast.7 mph83%29.90 "Hg12 mi
7:00 AM73 °FOvercast.6 mph83%29.89 "Hg12 mi
6:00 AM73 °FPassing clouds.9 mph83%29.88 "Hg15 mi
5:00 AM73 °FOvercast.5 mph83%29.87 "Hg12 mi
4:00 AM75 °FOvercast.3 mph74%29.88 "Hg12 mi
Weather by CustomWeather, © 2014

See weather overviewHow to use our weather pages